This demonstration page uses our WeatherBlox Daily Observations layout. Learn more.

Left ArrowRight Arrow

34.16533, -84.80231

Hourly Observations for March 9, 2022

Temp ( °F °C ) Dew Point ( °F °C ) Humidity (%) Winds ( mph kmh ) Pressure ( in mb ) Visibility ( mi km ) Precip ( " mm )
12:15 am 00:15 Cloudy with Mist and Fog 48 9 46 8 94 94 WNW 3 6 29.95 1014 3 5 0.00 0.00
12:35 am 00:35 Cloudy with Light Rain 48 9 46 8 94 94 NNE 3 6 29.94 1014 3 4 0.00 0.00
12:55 am 00:55 Cloudy with Light Rain 48 9 46 8 94 94 NNE 5 7 29.93 1014 3 4 0.01 0.25
1:15 am 01:15 Cloudy with Light Rain 48 9 46 8 94 94 N 3 6 29.92 1013 3 4 0.00 0.00
1:35 am 01:35 Cloudy with Mist and Fog 48 9 46 8 94 94 Calm 29.90 1013 3 4 0.00 0.00
1:55 am 01:55 Cloudy with Light Rain 48 9 46 8 94 94 Calm 29.90 1013 3 4 0.00 0.00
2:15 am 02:15 Cloudy with Light Rain 48 9 48 9 100 100 Calm 29.87 1012 2 3 0.00 0.00
2:35 am 02:35 Cloudy with Light Rain 48 9 48 9 100 100 Calm 29.86 1011 3 5 0.00 0.00
2:55 am 02:55 Cloudy with Light Rain 48 9 48 9 100 100 W 14 22 29.91 1013 6 10 0.01 0.25
3:15 am 03:15 Cloudy with Heavy Rain 48 9 46 8 94 94 VRB 7 11 29.91 1013 2 2 0.00 0.00
3:35 am 03:35 Cloudy with Light Rain 48 9 48 9 100 100 ESE 10 17 29.85 1011 4 6 0.00 0.00
3:55 am 03:55 Cloudy with Light Rain 48 9 48 9 100 100 ESE 8 13 29.81 1010 3 4 0.23 5.84
4:15 am 04:15 Cloudy with Heavy Rain 50 10 48 9 94 94 E 5 7 29.83 1010 3 4 0.00 0.00
4:35 am 04:35 Cloudy with Heavy Rain 50 10 48 9 94 94 ESE 5 7 29.82 1010 1 2 0.00 0.00
4:55 am 04:55 Cloudy with Light Rain 50 10 48 9 94 94 VRB 7 11 29.80 1009 2 3 0.52 13.21
5:15 am 05:15 Mostly Cloudy with Rain 50 10 48 9 94 94 Calm 29.81 1009 4 6 0.00 0.00
5:35 am 05:35 Cloudy with Heavy Rain 50 10 50 10 100 100 SSE 6 9 29.84 1010 1 2 0.00 0.00
5:55 am 05:55 Cloudy with Light Rain 50 10 50 10 100 100 Calm 29.83 1010 5 8 0.41 10.41
6:15 am 06:15 Cloudy with Light Rain 50 10 50 10 100 100 Calm 29.84 1010 10 16 0.00 0.00
6:35 am 06:35 Cloudy 50 10 50 10 100 100 Calm 29.85 1011 10 16 0.00 0.00
6:55 am 06:55 Cloudy 50 10 50 10 100 100 Calm 29.86 1011 10 16 0.01 0.25
7:15 am 07:15 Cloudy 52 11 50 10 94 94 W 7 11 29.88 1012 10 16 0.00 0.00
7:35 am 07:35 Cloudy 50 10 50 10 100 100 WNW 7 11 29.88 1012 8 13 0.00 0.00
7:55 am 07:55 Cloudy with Mist and Fog 50 10 50 10 100 100 W 7 11 29.91 1013 5 8 0.01 0.25
8:15 am 08:15 Cloudy with Mist and Fog 52 11 50 10 94 94 W 5 7 29.91 1013 3 5 0.00 0.00
8:35 am 08:35 Cloudy 52 11 50 10 94 94 Calm 29.91 1013 10 16 0.00 0.00
8:55 am 08:55 Cloudy 52 11 50 10 94 94 WNW 6 9 29.92 1013 10 16 0.00 0.00
9:15 am 09:15 Cloudy 52 11 50 10 94 94 W 7 11 29.93 1013 10 16 0.00 0.00
9:35 am 09:35 Cloudy 52 11 50 10 94 94 W 6 9 29.93 1013 10 16 0.00 0.00
9:55 am 09:55 Cloudy 52 11 50 10 94 94 WNW 7 11 29.93 1013 10 16 0.00 0.00
10:15 am 10:15 Cloudy 54 12 50 10 88 88 W 8 13 29.92 1013 10 16 0.00 0.00
10:35 am 10:35 Cloudy 54 12 50 10 88 88 W 9 15 29.92 1013 10 16 0.00 0.00
10:55 am 10:55 Cloudy 54 12 50 10 88 88 W 9 15 29.93 1014 10 16 0.00 0.00
11:15 am 11:15 Cloudy 54 12 50 10 88 88 W 16 26 29.94 1014 10 16 0.00 0.00
11:35 am 11:35 Cloudy 52 11 48 9 88 88 W 13 20 29.95 1014 10 16 0.00 0.00
11:55 am 11:55 Cloudy 52 11 48 9 88 88 VRB 6 9 29.96 1014 9 14 0.00 0.00
12:15 pm 12:15 Cloudy 52 11 46 8 82 82 NNW 6 9 29.96 1014 10 16 0.00 0.00
12:35 pm 12:35 Cloudy 52 11 46 8 82 82 VRB 6 9 29.96 1014 10 16 0.00 0.00
12:55 pm 12:55 Cloudy 54 12 46 8 77 77 VRB 5 7 29.95 1014 10 16 0.00 0.00
1:15 pm 13:15 Cloudy 54 12 46 8 77 77 VRB 7 11 29.95 1014 10 16 0.00 0.00
1:35 pm 13:35 Cloudy 54 12 46 8 77 77 VRB 6 9 29.94 1014 10 16 0.00 0.00
1:55 pm 13:55 Cloudy 54 12 46 8 77 77 VRB 5 7 29.94 1014 10 16 0.00 0.00
2:15 pm 14:15 Cloudy 54 12 45 7 72 72 NNW 8 13 29.94 1014 10 16 0.00 0.00
2:35 pm 14:35 Cloudy 54 12 46 8 77 77 VRB 6 9 29.94 1014 10 16 0.00 0.00
2:55 pm 14:55 Cloudy 54 12 45 7 72 72 NNW 9 15 29.94 1014 10 16 0.00 0.00
3:15 pm 15:15 Mostly Cloudy 54 12 45 7 72 72 VRB 7 11 29.95 1014 10 16 0.00 0.00
3:35 pm 15:35 Cloudy 54 12 45 7 72 72 NNW 8 13 29.95 1014 10 16 0.00 0.00
3:55 pm 15:55 Mostly Cloudy 54 12 45 7 72 72 NNW 8 13 29.95 1014 10 16 0.00 0.00
4:15 pm 16:15 Partly Cloudy 54 12 43 6 67 67 VRB 7 11 29.95 1014 10 16 0.00 0.00
4:35 pm 16:35 Sunny 54 12 43 6 67 67 VRB 6 9 29.96 1015 10 16 0.00 0.00
4:55 pm 16:55 Sunny 54 12 43 6 67 67 VRB 5 7 29.97 1015 10 16 0.00 0.00
5:15 pm 17:15 Sunny 54 12 43 6 67 67 NNW 5 7 29.97 1015 10 16 0.00 0.00
5:35 pm 17:35 Sunny 54 12 43 6 67 67 VRB 3 6 29.97 1015 10 16 0.00 0.00
5:55 pm 17:55 Sunny 54 12 43 6 67 67 Calm 29.97 1015 10 16 0.00 0.00
6:15 pm 18:15 Sunny 54 12 43 6 67 67 Calm 29.96 1015 10 16 0.00 0.00
6:35 pm 18:35 Sunny 52 11 43 6 72 72 VRB 3 6 29.97 1015 10 16 0.00 0.00
6:55 pm 18:55 Clear 52 11 43 6 72 72 Calm 29.97 1015 10 16 0.00 0.00
7:15 pm 19:15 Clear 52 11 43 6 72 72 Calm 29.96 1014 10 16 0.00 0.00
7:35 pm 19:35 Clear 50 10 43 6 76 76 Calm 29.97 1015 10 16 0.00 0.00
7:55 pm 19:55 Clear 52 11 43 6 72 72 Calm 29.97 1015 10 16 0.00 0.00
8:15 pm 20:15 Clear 50 10 43 6 76 76 Calm 29.96 1015 10 16 0.00 0.00
8:35 pm 20:35 Clear 50 10 43 6 76 76 Calm 29.97 1015 10 16 0.00 0.00
8:55 pm 20:55 Clear 50 10 43 6 76 76 Calm 29.99 1016 10 16 0.00 0.00
9:15 pm 21:15 Clear 50 10 43 6 76 76 W 5 7 29.99 1016 10 16 0.00 0.00
9:35 pm 21:35 Clear 48 9 43 6 82 82 W 6 9 30.00 1016 10 16 0.00 0.00
9:55 pm 21:55 Clear 48 9 43 6 82 82 W 6 9 29.99 1016 10 16 0.00 0.00
10:15 pm 22:15 Clear 50 10 43 6 76 76 W 6 9 29.99 1016 10 16 0.00 0.00
10:35 pm 22:35 Clear 50 10 43 6 76 76 WNW 7 11 29.99 1016 10 16 0.00 0.00
10:55 pm 22:55 Clear 48 9 43 6 82 82 Calm 29.98 1015 10 16 0.00 0.00
11:15 pm 23:15 Clear 48 9 43 6 82 82 NW 3 6 30.00 1016 10 16 0.00 0.00
11:35 pm 23:35 Clear 48 9 43 6 82 82 Calm 30.00 1016 10 16 0.00 0.00
11:55 pm 23:55 Clear 48 9 43 6 82 82 Calm 30.00 1016 10 16 0.00 0.00

Powered by AerisWeather